Weather History for Seretse Khama, Botswana

Change the Weather History Date:

Monday, July 15, 2013

  Actual Average Record
Temperature  
Mean Temperature 56 °F -  
Max Temperature 73 °F 72 °F 80 °F (2002)
Min Temperature 39 °F 42 °F 30 °F (1996)
Degree Days  
Heating Degree Days 9    
Growing Degree Days 6 (Base 50)    
Moisture  
Dew Point 34 °F    
Average Humidity 46    
Maximum Humidity 93    
Minimum Humidity 20    
Precipitation  
Precipitation 0.00 in - - ()
Sea Level Pressure  
Sea Level Pressure 30.24 in    
Wind  
Wind Speed 5 mph ()    
Max Wind Speed 10 mph    
Max Gust Speed -    
Averages and records for this station are not official NWS values.
T = Trace of Precipitation, MM = Missing Value Source: Averaged Metar Reports

Daily Weather History Graph

Daily Weather History Graph

Search for Another Location

Airport:

Trip Planner

Search our weather history database for the weather conditions in past years. The results will help you decide how hot, cold, wet, or windy it might be!

Date:

Astronomy

Jul. 15, 2013 Rise Set
Actual Time 6:59 AM CAT 5:45 PM CAT
Civil Twilight 6:35 AM CAT 6:09 PM CAT
Nautical Twilight 6:07 AM CAT 6:37 PM CAT
Astronomical Twilight 5:39 AM CAT 7:05 PM CAT
Moon 11:16 AM CAT (7/15) No Moon Set
Length of Visible Light 11h 34m
Length of Day
10h 45m
Waxing Crescent, 42% of the Moon is Illuminated
Jul 15
Waxing Crescent
Jul 16
First Quarter
Jul 22
Full
Jul 29
Last Quarter
Aug 6
New

Hourly Weather History & Observations

Time (CAT) Temp. Windchill Dew Point Humidity Pressure Visibility Wind Dir Wind Speed Gust Speed Precip Events Conditions
12:00 AM 48.2 °F - 39.2 °F 71% 30.21 in - SW 2.3 mph - N/A   Clear
1:00 AM 48.2 °F - 37.4 °F 66% 30.21 in - SW 3.5 mph - N/A   Clear
2:00 AM 44.6 °F 41.4 °F 39.2 °F 81% 30.21 in - ESE 5.8 mph - N/A   Clear
6:00 AM 39.2 °F 37.0 °F 37.4 °F 93% 30.27 in - NNE 3.5 mph - N/A   Clear
7:00 AM 39.2 °F 35.9 °F 37.4 °F 93% 30.27 in - WSW 4.6 mph - N/A   Clear
8:00 AM 44.6 °F 43.1 °F 39.2 °F 81% 30.30 in - SE 3.5 mph - N/A   Clear
9:00 AM 53.6 °F - 33.8 °F 47% 30.33 in - Variable 1.2 mph - N/A   Clear
10:00 AM 57.2 °F - 35.6 °F 44% 30.33 in - NE 6.9 mph - N/A   Clear
11:00 AM 62.6 °F - 35.6 °F 37% 30.30 in - NE 9.2 mph - N/A   Clear
12:00 PM 68.0 °F - 33.8 °F 28% 30.27 in - NE 10.4 mph - N/A   Clear
1:00 PM 69.8 °F - 33.8 °F 27% 30.24 in - NE 9.2 mph - N/A   Clear
2:00 PM 71.6 °F - 30.2 °F 22% 30.21 in - NW 9.2 mph - N/A   Clear
3:00 PM 73.4 °F - 30.2 °F 20% 30.21 in - North 4.6 mph - N/A   Clear
4:00 PM 73.4 °F - 30.2 °F 20% 30.18 in - North 5.8 mph - N/A   Clear
5:00 PM 71.6 °F - 28.4 °F 20% 30.18 in - NNE 5.8 mph - N/A   Clear
6:00 PM 68.0 °F - 32.0 °F 26% 30.21 in - East 4.6 mph - N/A   Clear
7:00 PM 60.8 °F - 32.0 °F 34% 30.21 in - ESE 8.1 mph - N/A   Clear
8:00 PM 60.8 °F - 32.0 °F 34% 30.21 in - East 8.1 mph - N/A   Clear
9:00 PM 59.0 °F - 32.0 °F 36% 30.24 in - ESE 8.1 mph - N/A   Clear
10:00 PM 53.6 °F - 32.0 °F 44% 30.24 in - SE 4.6 mph - N/A   Clear
11:00 PM 51.8 °F - 33.8 °F 50% 30.24 in - SE 4.6 mph - N/A   Clear